RA73890 KBFI-UHMA

Flight info

Callsign RA73890
Flight time 5h 49m
Altitude 32000
Route CONDI DCT VIXOR Q902 YZT J523 YZP Q801 MOCKA J501 EEVER Q801 JOH J501 TED J111 MCG H222 VALDA G212 ABINA N222 GIRLO G212 NALEK
Aircraft B737/M-SDRWY/L

Departure

Time 2026-05-08 16:46
Airport King County International Airport - Boeing Field (KBFI)

Arrival

Time 2026-05-08 22:35
Airport Ugolny Yuri Ryktheu Airport (UHMA)
Time Latitude Longitude Altitude Speed Heading
2026-05-08 16:21 47.53543 -122.31177 23 ft 0 kts 240°
2026-05-08 16:33 47.53544 -122.31174 25 ft 2 kts 239°
2026-05-08 16:33 47.53553 -122.31152 27 ft 2 kts 240°
2026-05-08 16:34 47.53561 -122.31131 25 ft 2 kts 241°
2026-05-08 16:34 47.53571 -122.31112 29 ft 2 kts 205°
2026-05-08 16:34 47.53587 -122.31111 26 ft 2 kts 156°
2026-05-08 16:34 47.53594 -122.31116 29 ft 1 kts 152°
2026-05-08 16:38 47.53589 -122.31112 27 ft 2 kts 151°
2026-05-08 16:38 47.53568 -122.31095 29 ft 4 kts 151°
2026-05-08 16:38 47.53545 -122.31075 26 ft 4 kts 151°
2026-05-08 16:39 47.53522 -122.31056 26 ft 4 kts 150°
2026-05-08 16:39 47.53499 -122.31037 27 ft 4 kts 150°
2026-05-08 16:39 47.53468 -122.31011 25 ft 6 kts 150°
2026-05-08 16:39 47.53422 -122.30972 25 ft 9 kts 150°
2026-05-08 16:40 47.53367 -122.30926 22 ft 9 kts 150°
2026-05-08 16:40 47.53313 -122.30881 22 ft 9 kts 150°
2026-05-08 16:40 47.53261 -122.30833 26 ft 9 kts 141°
2026-05-08 16:40 47.53222 -122.30765 23 ft 9 kts 129°
2026-05-08 16:41 47.53180 -122.30684 23 ft 10 kts 121°
2026-05-08 16:41 47.53196 -122.30595 26 ft 10 kts 39°
2026-05-08 16:41 47.53258 -122.30616 25 ft 10 kts 330°
2026-05-08 16:42 47.53378 -122.30716 26 ft 11 kts 330°
2026-05-08 16:42 47.53453 -122.30780 26 ft 13 kts 329°
2026-05-08 16:42 47.53528 -122.30844 29 ft 12 kts 330°
2026-05-08 16:42 47.53602 -122.30907 27 ft 12 kts 329°
2026-05-08 16:43 47.53678 -122.30971 28 ft 13 kts 331°
2026-05-08 16:43 47.53756 -122.31037 28 ft 13 kts 330°
2026-05-08 16:43 47.53832 -122.31101 28 ft 12 kts 330°
2026-05-08 16:43 47.53907 -122.31164 27 ft 12 kts 330°
2026-05-08 16:44 47.53958 -122.31207 27 ft 6 kts 331°
2026-05-08 16:44 47.53998 -122.31207 28 ft 6 kts 31°
2026-05-08 16:44 47.54020 -122.31155 29 ft 6 kts 63°
2026-05-08 16:44 47.54015 -122.31102 30 ft 6 kts 142°
2026-05-08 16:45 47.54008 -122.31096 27 ft 0 kts 152°
2026-05-08 16:45 47.53963 -122.31060 30 ft 20 kts 152°
2026-05-08 16:45 47.53649 -122.30806 27 ft 88 kts 149°
2026-05-08 16:45 47.52907 -122.30193 35 ft 153 kts 153°
2026-05-08 16:46 47.51955 -122.29370 782 ft 155 kts 150°
2026-05-08 16:46 47.51000 -122.28523 1709 ft 160 kts 152°
2026-05-08 16:46 47.50035 -122.27662 2588 ft 165 kts 154°
2026-05-08 16:46 47.49010 -122.26845 3370 ft 169 kts 167°
2026-05-08 16:47 47.47858 -122.27004 4017 ft 177 kts 212°
2026-05-08 16:47 47.47079 -122.28548 4234 ft 209 kts 254°
2026-05-08 16:47 47.47094 -122.30830 4660 ft 232 kts 272°
2026-05-08 16:47 47.47441 -122.33196 5407 ft 244 kts 291°
2026-05-08 16:48 47.48339 -122.35355 6442 ft 247 kts 304°
2026-05-08 16:48 47.49643 -122.37041 7421 ft 254 kts 323°
2026-05-08 16:48 47.51161 -122.38380 8276 ft 260 kts 327°
2026-05-08 16:48 47.52754 -122.39680 9189 ft 263 kts 327°
2026-05-08 16:49 47.54375 -122.41006 10078 ft 268 kts 327°
2026-05-08 16:49 47.56011 -122.42367 10857 ft 272 kts 326°
2026-05-08 16:49 47.57670 -122.43771 11665 ft 277 kts 325°
2026-05-08 16:49 47.59352 -122.45215 12454 ft 282 kts 324°
2026-05-08 16:50 47.61098 -122.46736 12879 ft 304 kts 324°
2026-05-08 16:50 47.62996 -122.48408 13084 ft 330 kts 324°
2026-05-08 16:50 47.65039 -122.50217 13272 ft 355 kts 325°
2026-05-08 16:50 47.67218 -122.52147 13699 ft 371 kts 325°
2026-05-08 16:51 47.69461 -122.54133 14344 ft 379 kts 325°
2026-05-08 16:51 47.71735 -122.56150 15086 ft 383 kts 325°
2026-05-08 16:51 47.74044 -122.58202 15771 ft 390 kts 325°
2026-05-08 16:51 47.76388 -122.60292 16467 ft 396 kts 325°
2026-05-08 16:52 47.78768 -122.62418 17157 ft 402 kts 325°
2026-05-08 16:52 47.81182 -122.64579 17825 ft 408 kts 325°
2026-05-08 16:52 47.83631 -122.66774 18465 ft 415 kts 325°
2026-05-08 16:52 47.86118 -122.69006 19068 ft 419 kts 325°
2026-05-08 16:53 47.91139 -122.73518 20411 ft 424 kts 325°
2026-05-08 16:53 47.93638 -122.75768 21033 ft 427 kts 324°
2026-05-08 16:53 47.96191 -122.78070 21652 ft 431 kts 324°
2026-05-08 16:54 47.98765 -122.80394 22269 ft 434 kts 324°
2026-05-08 16:54 48.01353 -122.82734 22868 ft 437 kts 324°
2026-05-08 16:54 48.03962 -122.85095 23445 ft 440 kts 324°
2026-05-08 16:54 48.06592 -122.87478 23955 ft 443 kts 324°
2026-05-08 16:55 48.09234 -122.89875 24400 ft 447 kts 324°
2026-05-08 16:55 48.11912 -122.92308 24829 ft 451 kts 324°
2026-05-08 16:55 48.14604 -122.94756 25265 ft 454 kts 324°
2026-05-08 16:55 48.17312 -122.97221 25689 ft 458 kts 324°
2026-05-08 16:56 48.20046 -122.99714 26109 ft 461 kts 324°
2026-05-08 16:56 48.22799 -123.02227 26517 ft 465 kts 324°
2026-05-08 16:56 48.25569 -123.04758 26911 ft 468 kts 324°
2026-05-08 16:56 48.28359 -123.07311 27306 ft 471 kts 324°
2026-05-08 16:57 48.31087 -123.10042 27637 ft 470 kts 315°
2026-05-08 16:57 48.33198 -123.13716 27990 ft 463 kts 296°
2026-05-08 16:57 48.34497 -123.18076 28423 ft 454 kts 281°
2026-05-08 16:57 48.35000 -123.22714 28803 ft 447 kts 268°
2026-05-08 16:58 48.34793 -123.27337 29162 ft 441 kts 253°
2026-05-08 16:58 48.33897 -123.31701 29690 ft 435 kts 245°
2026-05-08 16:58 48.32831 -123.35922 30333 ft 430 kts 244°
2026-05-08 16:58 48.31743 -123.40087 30854 ft 427 kts 244°
2026-05-08 16:59 48.30662 -123.44235 31313 ft 426 kts 244°
2026-05-08 16:59 48.29596 -123.48381 31743 ft 425 kts 244°
2026-05-08 16:59 48.28542 -123.52535 32138 ft 426 kts 244°
2026-05-08 16:59 48.27493 -123.56702 32124 ft 428 kts 244°
2026-05-08 17:00 48.25406 -123.65023 32149 ft 424 kts 244°
2026-05-08 17:00 48.23328 -123.73286 32161 ft 423 kts 244°
2026-05-08 17:01 48.21247 -123.81517 32155 ft 422 kts 244°
2026-05-08 17:01 48.20064 -123.90166 32166 ft 438 kts 267°
2026-05-08 17:02 48.20580 -123.94711 32144 ft 450 kts 282°
2026-05-08 17:02 48.21866 -123.98980 32167 ft 459 kts 292°
2026-05-08 17:02 48.25101 -124.07289 32163 ft 462 kts 295°
2026-05-08 17:03 48.28383 -124.15602 32148 ft 463 kts 294°
2026-05-08 17:03 48.31588 -124.23992 32149 ft 463 kts 294°
2026-05-08 17:04 48.34767 -124.32422 32156 ft 464 kts 294°
2026-05-08 17:04 48.38012 -124.40841 32153 ft 469 kts 298°
2026-05-08 17:05 48.42053 -124.48626 32160 ft 473 kts 304°
2026-05-08 17:05 48.45761 -124.55405 32162 ft 474 kts 304°
2026-05-08 17:06 48.49931 -124.63116 32161 ft 474 kts 303°
2026-05-08 17:06 48.54064 -124.70873 32167 ft 475 kts 303°
2026-05-08 17:07 48.58188 -124.78667 32161 ft 475 kts 303°
2026-05-08 17:07 48.62302 -124.86463 32161 ft 475 kts 303°
2026-05-08 17:08 48.66415 -124.94275 32163 ft 475 kts 303°
2026-05-08 17:08 48.70522 -125.02099 32160 ft 475 kts 303°
2026-05-08 17:09 48.74622 -125.09932 32163 ft 475 kts 303°
2026-05-08 17:09 48.78722 -125.17787 32153 ft 475 kts 303°
2026-05-08 17:10 48.82814 -125.25650 32160 ft 475 kts 303°
2026-05-08 17:10 48.86658 -125.33658 32134 ft 467 kts 292°
2026-05-08 17:11 48.88778 -125.42790 32147 ft 453 kts 274°
2026-05-08 17:11 48.89367 -125.52237 32158 ft 449 kts 269°
2026-05-08 17:12 48.89818 -125.61698 32160 ft 449 kts 269°
2026-05-08 17:12 48.90293 -125.71179 32161 ft 450 kts 269°
2026-05-08 17:13 48.90792 -125.80683 32156 ft 451 kts 269°
2026-05-08 17:13 48.91295 -125.90199 32157 ft 452 kts 269°
2026-05-08 17:14 48.91793 -125.99735 32155 ft 453 kts 269°
2026-05-08 17:14 48.92283 -126.09282 32153 ft 453 kts 269°
2026-05-08 17:15 48.92764 -126.18836 32149 ft 453 kts 269°
2026-05-08 17:15 48.93237 -126.28385 32144 ft 453 kts 269°
2026-05-08 17:16 48.93682 -126.37504 32141 ft 452 kts 269°
2026-05-08 17:16 48.94138 -126.47038 32139 ft 451 kts 269°
2026-05-08 17:17 48.94586 -126.56555 32137 ft 451 kts 269°
2026-05-08 17:17 48.95025 -126.66051 32136 ft 450 kts 269°
2026-05-08 17:18 48.95455 -126.75527 32138 ft 448 kts 269°
2026-05-08 17:18 48.95874 -126.84917 32131 ft 447 kts 270°
2026-05-08 17:19 48.96289 -126.94402 32134 ft 445 kts 270°
2026-05-08 17:19 48.96692 -127.03786 32132 ft 444 kts 270°
2026-05-08 17:20 48.97083 -127.13076 32120 ft 442 kts 270°
2026-05-08 17:20 48.97468 -127.22394 32124 ft 440 kts 270°
2026-05-08 17:21 48.97843 -127.31677 32118 ft 438 kts 270°
2026-05-08 17:21 48.98210 -127.40915 32116 ft 437 kts 270°
2026-05-08 17:22 48.98568 -127.50128 32112 ft 435 kts 270°
2026-05-08 17:22 48.98917 -127.59298 32111 ft 433 kts 270°
2026-05-08 17:23 48.99258 -127.68443 32104 ft 432 kts 271°
2026-05-08 17:23 48.99590 -127.77557 32102 ft 431 kts 271°
2026-05-08 17:24 48.99915 -127.86653 32103 ft 429 kts 271°
2026-05-08 17:24 49.00231 -127.95719 32093 ft 428 kts 271°
2026-05-08 17:25 49.00540 -128.04768 32092 ft 427 kts 271°
2026-05-08 17:25 49.00841 -128.13782 32085 ft 426 kts 271°
2026-05-08 17:26 49.01133 -128.22773 32082 ft 424 kts 271°
2026-05-08 17:26 49.01418 -128.31738 32080 ft 423 kts 271°
2026-05-08 17:27 49.01695 -128.40677 32074 ft 422 kts 271°
2026-05-08 17:27 49.01965 -128.49598 32071 ft 421 kts 271°
2026-05-08 17:28 49.02227 -128.58498 32065 ft 420 kts 271°
2026-05-08 17:28 49.02481 -128.67377 32062 ft 419 kts 271°
2026-05-08 17:29 49.02727 -128.76182 32062 ft 418 kts 271°
2026-05-08 17:29 49.02967 -128.85032 32057 ft 418 kts 271°
2026-05-08 17:30 49.03201 -128.93873 32051 ft 417 kts 271°
2026-05-08 17:30 49.03427 -129.02694 32048 ft 416 kts 271°
2026-05-08 17:31 49.03645 -129.11501 32047 ft 416 kts 271°
2026-05-08 17:31 49.03857 -129.20289 32036 ft 415 kts 271°
2026-05-08 17:32 49.04062 -129.29069 32038 ft 414 kts 271°
2026-05-08 17:32 49.04260 -129.37829 32033 ft 413 kts 271°
2026-05-08 17:33 49.04450 -129.46574 32028 ft 412 kts 271°
2026-05-08 17:33 49.04634 -129.55300 32025 ft 411 kts 271°
2026-05-08 17:34 49.04811 -129.64009 32020 ft 411 kts 271°
2026-05-08 17:34 49.04981 -129.72699 32014 ft 410 kts 271°
2026-05-08 17:35 49.05144 -129.81367 32013 ft 409 kts 271°
2026-05-08 17:35 49.05300 -129.90022 32010 ft 408 kts 271°
2026-05-08 17:36 49.05449 -129.98656 32006 ft 407 kts 271°
2026-05-08 17:36 49.05591 -130.07213 32005 ft 406 kts 271°
2026-05-08 17:37 49.05727 -130.15814 31999 ft 406 kts 271°
2026-05-08 17:37 49.05856 -130.24402 31998 ft 405 kts 270°
2026-05-08 17:38 49.05979 -130.32979 31991 ft 404 kts 270°
2026-05-08 17:38 49.06096 -130.41540 31990 ft 404 kts 270°
2026-05-08 17:39 49.06206 -130.50093 31986 ft 403 kts 270°
2026-05-08 17:39 49.06309 -130.58637 31987 ft 403 kts 270°
2026-05-08 17:40 49.06406 -130.67172 31981 ft 402 kts 270°
2026-05-08 17:40 49.06497 -130.75703 31981 ft 402 kts 270°
2026-05-08 17:41 49.06581 -130.84233 31978 ft 402 kts 270°
2026-05-08 17:41 49.06659 -130.92763 31973 ft 402 kts 270°
2026-05-08 17:42 49.06731 -131.01283 31969 ft 402 kts 270°
2026-05-08 17:42 49.06797 -131.09809 31968 ft 402 kts 269°
2026-05-08 17:43 49.06856 -131.18324 31967 ft 402 kts 269°
2026-05-08 17:43 49.06909 -131.26838 31971 ft 402 kts 269°
2026-05-08 17:44 49.06955 -131.35348 31963 ft 401 kts 269°
2026-05-08 17:44 49.06996 -131.43854 31953 ft 401 kts 269°
2026-05-08 17:45 49.07030 -131.52352 31955 ft 400 kts 269°
2026-05-08 17:45 49.07058 -131.60834 31950 ft 400 kts 269°
2026-05-08 17:46 49.07079 -131.69311 31949 ft 399 kts 269°
2026-05-08 17:46 49.07095 -131.77776 31947 ft 399 kts 268°
2026-05-08 17:47 49.07103 -131.84799 31942 ft 398 kts 268°
2026-05-08 17:47 49.07107 -131.93246 31943 ft 398 kts 268°
2026-05-08 17:48 49.07105 -132.01677 31941 ft 398 kts 268°
2026-05-08 17:48 49.07096 -132.10103 31938 ft 397 kts 268°
2026-05-08 17:49 49.07082 -132.18521 31936 ft 397 kts 268°
2026-05-08 17:49 49.07061 -132.26932 31938 ft 397 kts 268°
2026-05-08 17:50 49.07035 -132.35341 31931 ft 396 kts 268°
2026-05-08 17:50 49.07002 -132.43739 31929 ft 396 kts 267°
2026-05-08 17:51 49.06963 -132.52136 31920 ft 396 kts 267°
2026-05-08 17:51 49.06916 -132.60532 31922 ft 396 kts 267°
2026-05-08 17:52 49.06858 -132.68862 31918 ft 395 kts 266°
2026-05-08 17:53 49.06767 -132.81485 31914 ft 395 kts 266°
2026-05-08 17:53 49.06702 -132.89806 31914 ft 395 kts 266°
2026-05-08 17:54 49.06630 -132.98176 31905 ft 395 kts 266°
2026-05-08 17:54 49.06552 -133.06542 31905 ft 395 kts 266°
2026-05-08 17:55 49.06468 -133.14911 31907 ft 394 kts 266°
2026-05-08 17:55 49.06378 -133.23266 31899 ft 394 kts 266°
2026-05-08 17:56 49.06282 -133.31621 31897 ft 394 kts 265°
2026-05-08 17:56 49.06180 -133.39966 31902 ft 394 kts 265°
2026-05-08 17:57 49.06073 -133.48310 31890 ft 394 kts 265°
2026-05-08 17:57 49.05959 -133.56654 31892 ft 393 kts 265°
2026-05-08 17:58 49.05839 -133.64992 31884 ft 393 kts 265°
2026-05-08 17:58 49.05713 -133.73330 31884 ft 393 kts 265°
2026-05-08 17:59 49.05581 -133.81665 31880 ft 393 kts 265°
2026-05-08 17:59 49.05444 -133.89992 31879 ft 393 kts 265°
2026-05-08 18:00 49.05300 -133.98319 31872 ft 393 kts 264°
2026-05-08 18:00 49.05074 -134.10757 31870 ft 393 kts 264°
2026-05-08 18:01 49.04915 -134.19134 31865 ft 393 kts 264°
2026-05-08 18:01 49.04751 -134.27394 31859 ft 393 kts 264°
2026-05-08 18:02 49.04610 -134.34307 31858 ft 392 kts 264°
2026-05-08 18:02 49.04405 -134.44024 31855 ft 392 kts 264°
2026-05-08 18:03 49.04222 -134.52335 31853 ft 392 kts 264°
2026-05-08 18:03 49.04034 -134.60639 31845 ft 392 kts 263°
2026-05-08 18:04 49.03940 -134.64766 31818 ft 380 kts 263°
2026-05-08 18:04 49.03851 -134.68727 31851 ft 371 kts 263°
2026-05-08 18:04 49.03653 -134.76729 31858 ft 386 kts 263°
2026-05-08 18:05 49.03442 -134.85033 31849 ft 396 kts 263°
2026-05-08 18:05 49.03231 -134.93409 31834 ft 396 kts 263°
2026-05-08 18:06 49.03015 -135.01783 31833 ft 395 kts 263°
2026-05-08 18:06 49.02792 -135.10087 31830 ft 395 kts 263°
2026-05-08 18:07 49.02562 -135.18437 31827 ft 394 kts 263°
2026-05-08 18:07 49.02363 -135.26622 32143 ft 371 kts 263°
2026-05-08 18:08 49.02274 -135.30536 31965 ft 371 kts 262°
2026-05-08 18:08 49.02148 -135.34516 31886 ft 381 kts 262°
2026-05-08 18:08 49.01872 -135.42751 31828 ft 395 kts 262°
2026-05-08 18:09 49.01610 -135.51085 31806 ft 392 kts 262°
2026-05-08 18:09 49.01353 -135.59358 31812 ft 390 kts 262°
2026-05-08 18:10 49.01090 -135.67608 31807 ft 390 kts 262°
2026-05-08 18:10 49.00821 -135.75844 31802 ft 389 kts 262°
2026-05-08 18:11 49.00547 -135.84088 31800 ft 389 kts 262°
2026-05-08 18:11 49.00267 -135.92321 31800 ft 390 kts 262°
2026-05-08 18:12 49.00543 -136.00628 31803 ft 399 kts 273°
2026-05-08 18:12 49.02143 -136.08850 31800 ft 410 kts 283°
2026-05-08 18:13 49.04211 -136.16968 31796 ft 411 kts 283°
2026-05-08 18:13 49.06271 -136.25046 31781 ft 412 kts 283°
2026-05-08 18:14 49.08322 -136.33195 31783 ft 412 kts 282°
2026-05-08 18:14 49.10361 -136.41376 31776 ft 413 kts 282°
2026-05-08 18:15 49.12392 -136.49571 31773 ft 413 kts 282°
2026-05-08 18:15 49.14418 -136.57782 31767 ft 413 kts 282°
2026-05-08 18:16 49.16442 -136.66010 31760 ft 414 kts 282°
2026-05-08 18:16 49.18460 -136.74247 31755 ft 414 kts 282°
2026-05-08 18:17 49.20474 -136.82499 31749 ft 414 kts 281°
2026-05-08 18:17 49.22483 -136.90759 31743 ft 415 kts 281°
2026-05-08 18:18 49.24488 -136.99031 31736 ft 415 kts 281°
2026-05-08 18:18 49.26488 -137.07315 31731 ft 415 kts 281°
2026-05-08 18:19 49.28471 -137.15561 31729 ft 415 kts 281°
2026-05-08 18:19 49.30460 -137.23865 31727 ft 415 kts 281°
2026-05-08 18:20 49.32445 -137.32184 31724 ft 416 kts 281°
2026-05-08 18:20 49.34426 -137.40516 31725 ft 416 kts 281°
2026-05-08 18:21 49.36404 -137.48866 31707 ft 416 kts 281°
2026-05-08 18:21 49.38377 -137.57227 31705 ft 417 kts 280°
2026-05-08 18:22 49.40345 -137.65604 31703 ft 417 kts 280°
2026-05-08 18:22 49.42309 -137.73991 31700 ft 418 kts 280°
2026-05-08 18:23 49.44267 -137.82390 31691 ft 418 kts 280°
2026-05-08 18:23 49.46224 -137.90813 31689 ft 418 kts 280°
2026-05-08 18:24 49.48175 -137.99246 31684 ft 419 kts 280°
2026-05-08 18:24 49.50123 -138.07697 31673 ft 419 kts 279°
2026-05-08 18:25 49.52066 -138.16161 31676 ft 420 kts 279°
2026-05-08 18:25 49.54006 -138.24646 31659 ft 420 kts 279°
2026-05-08 18:26 49.55929 -138.33089 31656 ft 421 kts 279°
2026-05-08 18:26 49.57859 -138.41598 31656 ft 421 kts 279°
2026-05-08 18:27 49.59473 -138.48742 31649 ft 421 kts 279°
2026-05-08 18:27 49.61709 -138.58674 31644 ft 422 kts 279°
2026-05-08 18:28 49.63626 -138.67228 31639 ft 422 kts 279°
2026-05-08 18:28 49.65539 -138.75803 31635 ft 423 kts 279°
2026-05-08 18:29 49.67449 -138.84399 31628 ft 424 kts 279°
2026-05-08 18:29 49.69356 -138.93012 31624 ft 424 kts 279°
2026-05-08 18:30 49.71259 -139.01647 31618 ft 425 kts 279°
2026-05-08 18:30 49.73159 -139.10301 31612 ft 426 kts 279°
2026-05-08 18:31 49.75056 -139.18981 31607 ft 426 kts 279°
2026-05-08 18:31 49.76949 -139.27679 31605 ft 427 kts 279°
2026-05-08 18:32 49.78827 -139.36343 31598 ft 428 kts 279°
2026-05-08 18:32 49.80728 -139.45150 31576 ft 429 kts 279°
2026-05-08 18:33 49.82614 -139.53926 31587 ft 430 kts 279°
2026-05-08 18:33 49.84498 -139.62730 31577 ft 431 kts 279°
2026-05-08 18:34 49.86367 -139.71499 31573 ft 432 kts 279°
2026-05-08 18:34 49.88246 -139.80359 31568 ft 433 kts 279°
2026-05-08 18:35 49.90123 -139.89247 31559 ft 434 kts 279°
2026-05-08 18:35 49.91998 -139.98163 31555 ft 435 kts 279°
2026-05-08 18:36 49.93871 -140.07110 31545 ft 436 kts 279°
2026-05-08 18:36 49.95742 -140.16086 31536 ft 437 kts 279°
2026-05-08 18:37 49.97611 -140.25090 31531 ft 438 kts 279°
2026-05-08 18:37 49.99477 -140.34123 31528 ft 439 kts 279°
2026-05-08 18:38 50.01337 -140.43169 31523 ft 440 kts 279°
2026-05-08 18:38 50.03196 -140.52252 31517 ft 441 kts 279°
2026-05-08 18:39 50.04738 -140.59821 31514 ft 442 kts 279°
2026-05-08 18:39 50.06592 -140.68952 31509 ft 443 kts 279°
2026-05-08 18:40 50.08743 -140.79609 31497 ft 445 kts 279°
2026-05-08 18:40 50.10592 -140.88809 31490 ft 446 kts 279°
2026-05-08 18:41 50.12138 -140.96538 31479 ft 447 kts 279°
2026-05-08 18:41 50.13983 -141.05798 31473 ft 448 kts 279°
2026-05-08 18:42 50.15823 -141.15083 31469 ft 449 kts 279°
2026-05-08 18:42 50.17662 -141.24405 31460 ft 450 kts 279°
2026-05-08 18:43 50.19496 -141.33750 31451 ft 451 kts 280°
2026-05-08 18:43 50.21329 -141.43129 31447 ft 452 kts 280°
2026-05-08 18:44 50.23157 -141.52530 31439 ft 453 kts 280°
2026-05-08 18:44 50.24981 -141.61959 31428 ft 454 kts 280°
2026-05-08 18:45 50.26789 -141.71350 31423 ft 455 kts 280°
2026-05-08 18:45 50.28606 -141.80833 31415 ft 456 kts 280°
2026-05-08 18:46 50.30416 -141.90332 31408 ft 456 kts 280°
2026-05-08 18:46 50.32223 -141.99860 31403 ft 457 kts 281°
2026-05-08 18:47 50.34025 -142.09410 31390 ft 458 kts 281°
2026-05-08 18:47 50.35820 -142.18978 31390 ft 459 kts 281°
2026-05-08 18:48 50.37613 -142.28580 31376 ft 460 kts 281°
2026-05-08 18:48 50.39400 -142.38196 31365 ft 460 kts 281°
2026-05-08 18:49 50.41181 -142.47831 31354 ft 460 kts 281°
2026-05-08 18:49 50.42954 -142.57475 31347 ft 460 kts 281°
2026-05-08 18:50 50.44719 -142.67129 31340 ft 461 kts 281°
2026-05-08 18:50 50.46477 -142.76797 31341 ft 460 kts 281°
2026-05-08 18:51 50.48227 -142.86465 31319 ft 461 kts 281°
2026-05-08 18:51 50.49957 -142.96078 31311 ft 461 kts 281°
2026-05-08 18:52 50.51692 -143.05769 31308 ft 461 kts 281°
2026-05-08 18:52 50.53424 -143.15481 31295 ft 462 kts 282°
2026-05-08 18:53 50.55147 -143.25209 31283 ft 462 kts 281°
2026-05-08 18:53 50.56864 -143.34952 31279 ft 462 kts 282°
2026-05-08 18:54 50.58566 -143.44696 31270 ft 462 kts 281°
2026-05-08 18:54 50.60264 -143.54456 31257 ft 462 kts 281°
2026-05-08 18:55 50.62804 -143.69109 31244 ft 463 kts 282°
2026-05-08 18:56 50.64487 -143.78905 31240 ft 464 kts 282°
2026-05-08 18:56 50.66164 -143.88723 31229 ft 464 kts 281°
2026-05-08 18:57 50.67835 -143.98556 31226 ft 465 kts 282°
2026-05-08 18:57 50.69500 -144.08423 31216 ft 466 kts 282°
2026-05-08 18:58 50.71164 -144.18317 31203 ft 467 kts 282°
2026-05-08 18:58 50.72820 -144.28225 31200 ft 467 kts 282°
2026-05-08 18:59 50.74468 -144.38155 31189 ft 468 kts 283°
2026-05-08 18:59 50.76109 -144.48098 31186 ft 468 kts 283°
2026-05-08 19:00 50.77734 -144.58002 31183 ft 469 kts 283°
2026-05-08 19:00 50.79362 -144.67974 31174 ft 469 kts 283°
2026-05-08 19:01 50.80982 -144.77968 31167 ft 469 kts 283°
2026-05-08 19:01 50.82595 -144.87971 31172 ft 470 kts 283°
2026-05-08 19:02 50.84202 -144.97998 31152 ft 470 kts 283°
2026-05-08 19:02 50.85796 -145.08008 31151 ft 469 kts 283°
2026-05-08 19:03 50.87381 -145.18017 31150 ft 468 kts 283°
2026-05-08 19:03 50.88954 -145.28016 31145 ft 468 kts 283°
2026-05-08 19:04 50.90517 -145.38002 31137 ft 467 kts 282°
2026-05-08 19:04 50.92069 -145.47993 31148 ft 467 kts 282°
2026-05-08 19:05 50.93613 -145.57988 31134 ft 467 kts 283°
2026-05-08 19:05 50.95152 -145.68013 31124 ft 468 kts 283°
2026-05-08 19:06 50.96671 -145.77964 31127 ft 467 kts 283°
2026-05-08 19:06 50.98190 -145.87970 31134 ft 466 kts 283°
2026-05-08 19:07 50.99744 -145.97946 31122 ft 466 kts 287°
2026-05-08 19:07 51.02475 -146.07257 31138 ft 466 kts 299°
2026-05-08 19:08 51.05765 -146.16120 31138 ft 466 kts 300°
2026-05-08 19:08 51.09062 -146.25000 31128 ft 467 kts 300°
2026-05-08 19:09 51.12323 -146.33943 31119 ft 467 kts 300°
2026-05-08 19:09 51.15551 -146.42897 31126 ft 466 kts 299°
2026-05-08 19:10 51.18762 -146.51856 31128 ft 465 kts 299°
2026-05-08 19:10 51.21965 -146.60818 31128 ft 465 kts 299°
2026-05-08 19:11 51.25157 -146.69781 31131 ft 464 kts 299°
2026-05-08 19:11 51.28337 -146.78740 31134 ft 464 kts 299°
2026-05-08 19:12 51.31513 -146.87717 31133 ft 464 kts 299°
2026-05-08 19:12 51.34678 -146.96697 31139 ft 463 kts 299°
2026-05-08 19:13 51.37838 -147.05693 31136 ft 464 kts 299°
2026-05-08 19:13 51.40972 -147.14650 31154 ft 465 kts 298°
2026-05-08 19:14 51.44128 -147.23699 31136 ft 466 kts 298°
2026-05-08 19:14 51.47279 -147.32766 31149 ft 465 kts 298°
2026-05-08 19:15 51.50418 -147.41835 31162 ft 465 kts 298°
2026-05-08 19:15 51.53552 -147.50919 31162 ft 465 kts 298°
2026-05-08 19:16 51.56674 -147.60003 31168 ft 464 kts 298°
2026-05-08 19:16 51.59791 -147.69100 31176 ft 465 kts 298°
2026-05-08 19:17 51.62902 -147.78216 31170 ft 465 kts 298°
2026-05-08 19:17 51.66004 -147.87341 31184 ft 464 kts 298°
2026-05-08 19:18 51.69097 -147.96472 31186 ft 464 kts 298°
2026-05-08 19:18 51.72187 -148.05624 31199 ft 465 kts 298°
2026-05-08 19:19 51.75269 -148.14791 31198 ft 465 kts 298°
2026-05-08 19:19 51.78345 -148.23970 31200 ft 465 kts 298°
2026-05-08 19:20 51.81415 -148.33171 31215 ft 465 kts 298°
2026-05-08 19:20 51.84483 -148.42395 31208 ft 466 kts 298°
2026-05-08 19:21 51.87545 -148.51635 31222 ft 466 kts 298°
2026-05-08 19:21 51.90599 -148.60886 31226 ft 466 kts 298°
2026-05-08 19:22 51.93653 -148.70174 31239 ft 468 kts 298°
2026-05-08 19:22 51.96688 -148.79435 31234 ft 469 kts 298°
2026-05-08 19:23 51.99738 -148.88782 31244 ft 469 kts 299°
2026-05-08 19:23 52.02786 -148.98155 31246 ft 469 kts 299°
2026-05-08 19:24 52.05828 -149.07533 31270 ft 469 kts 299°
2026-05-08 19:24 52.08866 -149.16948 31260 ft 470 kts 299°
2026-05-08 19:25 52.11894 -149.26373 31279 ft 470 kts 300°
2026-05-08 19:25 52.14917 -149.35829 31277 ft 471 kts 300°
2026-05-08 19:26 52.17938 -149.45297 31271 ft 471 kts 300°
2026-05-08 19:26 52.20952 -149.54762 31292 ft 470 kts 300°
2026-05-08 19:27 52.23952 -149.64241 31302 ft 470 kts 299°
2026-05-08 19:27 52.26941 -149.73732 31304 ft 470 kts 300°
2026-05-08 19:28 52.29906 -149.83170 31316 ft 470 kts 300°
2026-05-08 19:28 52.32881 -149.92673 31315 ft 470 kts 300°
2026-05-08 19:29 52.35842 -150.02178 31328 ft 469 kts 300°
2026-05-08 19:29 52.38794 -150.11697 31333 ft 469 kts 300°
2026-05-08 19:30 52.41740 -150.21215 31346 ft 468 kts 300°
2026-05-08 19:30 52.44671 -150.30735 31343 ft 468 kts 300°
2026-05-08 19:31 52.47592 -150.40254 31347 ft 467 kts 300°
2026-05-08 19:31 52.50034 -150.48240 31357 ft 467 kts 300°
2026-05-08 19:32 52.52935 -150.57769 31362 ft 466 kts 300°
2026-05-08 19:32 52.55806 -150.67234 31366 ft 466 kts 300°
2026-05-08 19:33 52.58686 -150.76764 31373 ft 465 kts 300°
2026-05-08 19:33 52.61557 -150.86299 31384 ft 465 kts 300°
2026-05-08 19:34 52.64420 -150.95850 31388 ft 465 kts 300°
2026-05-08 19:34 52.67281 -151.05428 31383 ft 466 kts 300°
2026-05-08 19:35 52.70126 -151.15000 31392 ft 465 kts 300°
2026-05-08 19:35 52.72959 -151.24565 31404 ft 464 kts 300°
2026-05-08 19:36 52.75782 -151.34133 31417 ft 464 kts 299°
2026-05-08 19:36 52.78603 -151.43732 31415 ft 465 kts 300°
2026-05-08 19:37 52.81415 -151.53343 31408 ft 464 kts 299°
2026-05-08 19:37 52.84211 -151.62937 31427 ft 463 kts 299°
2026-05-08 19:38 52.86995 -151.72529 31430 ft 462 kts 299°
2026-05-08 19:38 52.89769 -151.82127 31442 ft 461 kts 299°
2026-05-08 19:39 52.92531 -151.91717 31446 ft 461 kts 299°
2026-05-08 19:39 52.95280 -152.01305 31464 ft 461 kts 299°
2026-05-08 19:40 52.98026 -152.10921 31464 ft 461 kts 299°
2026-05-08 19:40 53.00770 -152.20568 31430 ft 462 kts 299°
2026-05-08 19:41 53.03502 -152.30216 31464 ft 461 kts 299°
2026-05-08 19:41 53.06199 -152.39779 31482 ft 460 kts 299°
2026-05-08 19:42 53.08906 -152.49411 31474 ft 459 kts 299°
2026-05-08 19:42 53.11598 -152.59036 31475 ft 458 kts 299°
2026-05-08 19:43 53.14277 -152.68650 31483 ft 457 kts 299°
2026-05-08 19:43 53.16943 -152.78259 31491 ft 456 kts 299°
2026-05-08 19:44 53.19597 -152.87866 31498 ft 456 kts 299°
2026-05-08 19:44 53.22241 -152.97474 31500 ft 456 kts 298°
2026-05-08 19:45 53.24881 -153.07105 31504 ft 456 kts 298°
2026-05-08 19:45 53.27507 -153.16730 31514 ft 456 kts 298°
2026-05-08 19:46 53.30128 -153.26373 31515 ft 456 kts 298°
2026-05-08 19:46 53.34041 -153.40850 31524 ft 455 kts 298°
2026-05-08 19:47 53.36640 -153.50514 31529 ft 455 kts 297°
2026-05-08 19:47 53.39229 -153.60184 31529 ft 455 kts 297°
2026-05-08 19:48 53.41807 -153.69856 31538 ft 455 kts 297°
2026-05-08 19:48 53.44378 -153.79537 31539 ft 454 kts 297°
2026-05-08 19:49 53.46940 -153.89229 31544 ft 454 kts 297°
2026-05-08 19:49 53.49492 -153.98923 31554 ft 454 kts 296°
2026-05-08 19:50 53.52033 -154.08621 31555 ft 453 kts 296°
2026-05-08 19:50 53.54564 -154.18319 31556 ft 453 kts 296°
2026-05-08 19:51 53.57068 -154.27954 31568 ft 453 kts 296°
2026-05-08 19:51 53.59581 -154.37664 31572 ft 453 kts 296°
2026-05-08 19:52 53.62084 -154.47379 31568 ft 452 kts 296°
2026-05-08 19:52 53.64575 -154.57094 31568 ft 451 kts 295°
2026-05-08 19:53 53.67055 -154.66797 31575 ft 450 kts 295°
2026-05-08 19:53 53.69523 -154.76503 31582 ft 450 kts 295°
2026-05-08 19:54 53.71981 -154.86209 31594 ft 450 kts 295°
2026-05-08 19:54 53.74438 -154.95956 31580 ft 451 kts 295°
2026-05-08 19:55 53.76884 -155.05699 31588 ft 449 kts 294°
2026-05-08 19:55 53.79312 -155.15420 31602 ft 448 kts 294°
2026-05-08 19:56 53.81733 -155.25146 31586 ft 448 kts 294°
2026-05-08 19:56 53.84139 -155.34865 31594 ft 447 kts 294°
2026-05-08 19:57 53.86528 -155.44551 31604 ft 445 kts 294°
2026-05-08 19:57 53.88883 -155.54147 31605 ft 443 kts 293°
2026-05-08 19:58 53.91241 -155.63786 31609 ft 442 kts 293°
2026-05-08 19:58 53.93586 -155.73423 31618 ft 442 kts 292°
2026-05-08 19:59 53.95923 -155.83069 31612 ft 441 kts 292°
2026-05-08 19:59 53.98250 -155.92707 31623 ft 441 kts 292°
2026-05-08 20:00 54.00956 -156.02035 31623 ft 441 kts 304°
2026-05-08 20:00 54.04799 -156.10152 31621 ft 441 kts 309°
2026-05-08 20:01 54.08747 -156.18142 31628 ft 441 kts 309°
2026-05-08 20:01 54.12673 -156.26175 31638 ft 441 kts 308°
2026-05-08 20:02 54.16574 -156.34251 31652 ft 442 kts 308°
2026-05-08 20:02 54.20475 -156.42381 31641 ft 442 kts 308°
2026-05-08 20:03 54.24367 -156.50526 31647 ft 442 kts 308°
2026-05-08 20:03 54.28254 -156.58684 31651 ft 442 kts 308°
2026-05-08 20:04 54.32132 -156.66848 31666 ft 442 kts 308°
2026-05-08 20:04 54.36008 -156.75036 31676 ft 443 kts 308°
2026-05-08 20:05 54.39883 -156.83250 31672 ft 443 kts 308°
2026-05-08 20:05 54.43752 -156.91475 31674 ft 443 kts 308°
2026-05-08 20:06 54.47614 -156.99715 31678 ft 443 kts 308°
2026-05-08 20:06 54.51474 -157.07978 31686 ft 443 kts 307°
2026-05-08 20:07 54.55331 -157.16265 31687 ft 443 kts 307°
2026-05-08 20:07 54.59182 -157.24564 31693 ft 443 kts 307°
2026-05-08 20:08 54.63002 -157.32821 31701 ft 443 kts 307°
2026-05-08 20:08 54.66838 -157.41145 31704 ft 443 kts 307°
2026-05-08 20:09 54.70665 -157.49479 31713 ft 442 kts 307°
2026-05-08 20:09 54.74486 -157.57822 31711 ft 442 kts 306°
2026-05-08 20:10 54.78296 -157.66172 31714 ft 442 kts 306°
2026-05-08 20:10 54.82099 -157.74533 31726 ft 441 kts 306°
2026-05-08 20:11 54.85895 -157.82909 31725 ft 441 kts 306°
2026-05-08 20:11 54.89678 -157.91291 31727 ft 441 kts 306°
2026-05-08 20:12 54.93458 -157.99691 31728 ft 441 kts 306°
2026-05-08 20:12 54.97233 -158.08106 31740 ft 441 kts 306°
2026-05-08 20:13 55.01004 -158.16543 31736 ft 441 kts 306°
2026-05-08 20:13 55.04769 -158.24999 31741 ft 442 kts 306°
2026-05-08 20:14 55.08534 -158.33477 31748 ft 442 kts 306°
2026-05-08 20:14 55.12295 -158.41977 31750 ft 442 kts 306°
2026-05-08 20:15 55.16053 -158.50501 31754 ft 443 kts 306°
2026-05-08 20:15 55.19811 -158.59056 31755 ft 444 kts 306°
2026-05-08 20:16 55.23567 -158.67634 31760 ft 444 kts 306°
2026-05-08 20:16 55.27298 -158.76185 31765 ft 445 kts 306°
2026-05-08 20:17 55.31055 -158.84827 31766 ft 446 kts 306°
2026-05-08 20:17 55.34809 -158.93492 31771 ft 446 kts 306°
2026-05-08 20:18 55.38566 -159.02194 31774 ft 447 kts 306°
2026-05-08 20:18 55.42318 -159.10913 31774 ft 447 kts 307°
2026-05-08 20:19 55.46065 -159.19657 31779 ft 447 kts 307°
2026-05-08 20:19 55.49810 -159.28424 31777 ft 448 kts 307°
2026-05-08 20:20 55.53551 -159.37215 31782 ft 448 kts 307°
2026-05-08 20:20 55.56660 -159.44542 31786 ft 448 kts 307°
2026-05-08 20:21 55.60395 -159.53374 31793 ft 449 kts 307°
2026-05-08 20:21 55.64130 -159.62241 31797 ft 450 kts 307°
2026-05-08 20:22 55.67863 -159.71134 31803 ft 450 kts 307°
2026-05-08 20:22 55.71598 -159.80062 31808 ft 451 kts 307°
2026-05-08 20:23 55.75328 -159.89016 31814 ft 451 kts 307°
2026-05-08 20:23 55.79057 -159.97996 31820 ft 452 kts 307°
2026-05-08 20:24 55.82758 -160.06940 31829 ft 452 kts 307°
2026-05-08 20:24 55.86482 -160.15974 31832 ft 453 kts 307°
2026-05-08 20:25 55.90202 -160.25032 31835 ft 453 kts 307°
2026-05-08 20:25 55.93918 -160.34114 31845 ft 453 kts 307°
2026-05-08 20:26 55.97630 -160.43218 31839 ft 454 kts 307°
2026-05-08 20:26 56.01336 -160.52345 31841 ft 454 kts 307°
2026-05-08 20:27 56.05038 -160.61495 31848 ft 454 kts 307°
2026-05-08 20:27 56.08730 -160.70657 31849 ft 454 kts 307°
2026-05-08 20:28 56.12413 -160.79828 31851 ft 453 kts 306°
2026-05-08 20:28 56.16088 -160.89014 31855 ft 453 kts 306°
2026-05-08 20:29 56.19753 -160.98210 31852 ft 453 kts 306°
2026-05-08 20:29 56.23410 -161.07420 31857 ft 452 kts 306°
2026-05-08 20:30 56.27028 -161.16567 31854 ft 452 kts 306°
2026-05-08 20:30 56.30660 -161.25785 31854 ft 451 kts 306°
2026-05-08 20:31 56.34282 -161.35011 31856 ft 451 kts 306°
2026-05-08 20:31 56.37895 -161.44250 31852 ft 450 kts 306°
2026-05-08 20:32 56.41499 -161.53500 31852 ft 450 kts 306°
2026-05-08 20:32 56.45093 -161.62760 31850 ft 450 kts 306°
2026-05-08 20:33 56.48677 -161.72028 31855 ft 450 kts 306°
2026-05-08 20:33 56.52255 -161.81318 31856 ft 450 kts 305°
2026-05-08 20:34 56.55826 -161.90625 31852 ft 450 kts 305°
2026-05-08 20:35 56.61169 -162.04617 31855 ft 450 kts 305°
2026-05-08 20:35 56.64722 -162.13966 31851 ft 450 kts 305°
2026-05-08 20:36 56.68266 -162.23329 31852 ft 449 kts 305°
2026-05-08 20:36 56.71803 -162.32706 31849 ft 449 kts 305°
2026-05-08 20:37 56.75329 -162.42093 31853 ft 449 kts 305°
2026-05-08 20:37 56.78845 -162.51491 31858 ft 449 kts 305°
2026-05-08 20:38 56.82353 -162.60901 31853 ft 448 kts 305°
2026-05-08 20:38 56.85851 -162.70323 31857 ft 448 kts 305°
2026-05-08 20:39 56.89338 -162.79751 31858 ft 447 kts 305°
2026-05-08 20:39 56.92811 -162.89179 31864 ft 446 kts 305°
2026-05-08 20:40 56.96271 -162.98607 31863 ft 446 kts 304°
2026-05-08 20:40 56.99701 -163.07987 31863 ft 445 kts 304°
2026-05-08 20:41 57.03136 -163.17424 31866 ft 445 kts 304°
2026-05-08 20:41 57.06562 -163.26871 31864 ft 444 kts 304°
2026-05-08 20:42 57.09977 -163.36322 31875 ft 443 kts 304°
2026-05-08 20:42 57.13377 -163.45771 31873 ft 443 kts 304°
2026-05-08 20:43 57.16767 -163.55232 31875 ft 442 kts 304°
2026-05-08 20:43 57.20152 -163.64709 31882 ft 442 kts 304°
2026-05-08 20:44 57.23528 -163.74201 31885 ft 443 kts 304°
2026-05-08 20:44 57.26900 -163.83722 31883 ft 443 kts 304°
2026-05-08 20:45 57.30267 -163.93263 31887 ft 443 kts 304°
2026-05-08 20:45 57.33629 -164.02829 31892 ft 443 kts 304°
2026-05-08 20:46 57.36984 -164.12416 31895 ft 444 kts 304°
2026-05-08 20:46 57.40332 -164.22022 31897 ft 444 kts 304°
2026-05-08 20:47 57.43677 -164.31652 31901 ft 444 kts 304°
2026-05-08 20:47 57.47014 -164.41299 31904 ft 444 kts 304°
2026-05-08 20:48 57.50348 -164.50982 31910 ft 444 kts 304°
2026-05-08 20:48 57.53673 -164.60673 31910 ft 445 kts 304°
2026-05-08 20:49 57.56994 -164.70389 31917 ft 445 kts 304°
2026-05-08 20:49 57.60307 -164.80128 31916 ft 445 kts 304°
2026-05-08 20:50 57.63592 -164.89824 31921 ft 445 kts 304°
2026-05-08 20:50 57.66896 -164.99614 31925 ft 445 kts 304°
2026-05-08 20:51 57.70190 -165.09415 31929 ft 446 kts 304°
2026-05-08 20:51 57.73480 -165.19244 31934 ft 446 kts 303°
2026-05-08 20:52 57.76766 -165.29096 31936 ft 446 kts 303°
2026-05-08 20:52 57.80043 -165.38970 31939 ft 446 kts 304°
2026-05-08 20:53 57.83313 -165.48867 31940 ft 447 kts 303°
2026-05-08 20:53 57.86574 -165.58770 31934 ft 443 kts 304°
2026-05-08 20:54 57.89781 -165.68551 31951 ft 438 kts 303°
2026-05-08 20:54 57.92975 -165.78338 31957 ft 440 kts 303°
2026-05-08 20:55 57.96173 -165.88169 31958 ft 441 kts 303°
2026-05-08 20:55 57.99696 -165.97564 31961 ft 438 kts 316°
2026-05-08 20:56 58.04531 -166.04406 31958 ft 435 kts 334°
2026-05-08 20:56 58.09930 -166.09353 31958 ft 435 kts 336°
2026-05-08 20:57 58.15402 -166.14240 31967 ft 435 kts 336°
2026-05-08 20:57 58.20860 -166.19202 31965 ft 435 kts 335°
2026-05-08 20:58 58.26301 -166.24223 31965 ft 435 kts 335°
2026-05-08 20:58 58.31732 -166.29273 31968 ft 434 kts 335°
2026-05-08 20:59 58.37155 -166.34335 31976 ft 434 kts 335°
2026-05-08 20:59 58.42568 -166.39404 31985 ft 433 kts 335°
2026-05-08 21:00 58.47977 -166.44486 31980 ft 433 kts 335°
2026-05-08 21:00 58.53380 -166.49579 31986 ft 433 kts 335°
2026-05-08 21:01 58.58773 -166.54682 31977 ft 432 kts 335°
2026-05-08 21:01 58.64165 -166.59799 31988 ft 432 kts 335°
2026-05-08 21:02 58.69546 -166.64925 31992 ft 431 kts 335°
2026-05-08 21:02 58.74891 -166.70034 31989 ft 431 kts 335°
2026-05-08 21:03 58.80261 -166.75185 31998 ft 431 kts 335°
2026-05-08 21:03 58.85625 -166.80347 31989 ft 431 kts 335°
2026-05-08 21:04 58.90985 -166.85524 31997 ft 431 kts 335°
2026-05-08 21:04 58.96344 -166.90719 31998 ft 430 kts 335°
2026-05-08 21:05 59.01695 -166.95923 32001 ft 430 kts 334°
2026-05-08 21:05 59.07050 -167.01150 32008 ft 430 kts 334°
2026-05-08 21:06 59.12398 -167.06388 32001 ft 430 kts 335°
2026-05-08 21:06 59.17746 -167.11644 32012 ft 431 kts 334°
2026-05-08 21:07 59.23092 -167.16918 32012 ft 431 kts 334°
2026-05-08 21:07 59.28437 -167.22209 32008 ft 431 kts 334°
2026-05-08 21:08 59.33786 -167.27522 32013 ft 431 kts 334°
2026-05-08 21:08 59.39133 -167.32853 32007 ft 431 kts 334°
2026-05-08 21:09 59.44482 -167.38205 32016 ft 431 kts 334°
2026-05-08 21:09 59.49829 -167.43573 32014 ft 432 kts 334°
2026-05-08 21:10 59.55140 -167.48924 32018 ft 432 kts 334°
2026-05-08 21:10 59.60487 -167.54332 32020 ft 432 kts 334°
2026-05-08 21:11 59.65829 -167.59754 32023 ft 432 kts 334°
2026-05-08 21:11 59.71173 -167.65197 32020 ft 432 kts 334°
2026-05-08 21:12 59.76511 -167.70653 32023 ft 432 kts 334°
2026-05-08 21:12 59.80981 -167.75239 32029 ft 432 kts 334°
2026-05-08 21:13 59.86283 -167.80695 32031 ft 432 kts 334°
2026-05-08 21:13 59.91646 -167.86234 32031 ft 432 kts 334°
2026-05-08 21:14 59.96938 -167.91719 32032 ft 431 kts 334°
2026-05-08 21:14 60.02262 -167.97258 32035 ft 431 kts 334°
2026-05-08 21:15 60.07581 -168.02813 32038 ft 431 kts 334°
2026-05-08 21:15 60.12899 -168.08386 32040 ft 431 kts 334°
2026-05-08 21:16 60.18211 -168.13974 32042 ft 431 kts 334°
2026-05-08 21:16 60.23517 -168.19576 32046 ft 431 kts 334°
2026-05-08 21:17 60.28825 -168.25201 32048 ft 431 kts 334°
2026-05-08 21:17 60.34105 -168.30817 32054 ft 431 kts 334°
2026-05-08 21:18 60.39429 -168.36500 32056 ft 431 kts 334°
2026-05-08 21:18 60.44683 -168.42130 32057 ft 431 kts 334°
2026-05-08 21:19 60.50026 -168.47876 32060 ft 431 kts 334°
2026-05-08 21:19 60.55268 -168.53535 32060 ft 431 kts 334°
2026-05-08 21:20 60.60598 -168.59311 32066 ft 431 kts 334°
2026-05-08 21:20 60.65807 -168.64978 32068 ft 431 kts 334°
2026-05-08 21:21 60.71174 -168.70835 32069 ft 431 kts 334°
2026-05-08 21:21 60.76463 -168.76612 32075 ft 431 kts 334°
2026-05-08 21:22 60.81762 -168.82349 32076 ft 431 kts 334°
2026-05-08 21:22 60.86948 -168.87973 32077 ft 431 kts 334°
2026-05-08 21:23 60.92360 -168.93873 32079 ft 431 kts 334°
2026-05-08 21:23 60.97615 -168.99630 32080 ft 431 kts 334°
2026-05-08 21:24 61.02905 -169.05448 32084 ft 431 kts 334°
2026-05-08 21:24 61.08191 -169.11284 32086 ft 431 kts 334°
2026-05-08 21:25 61.13472 -169.17138 32088 ft 431 kts 334°
2026-05-08 21:25 61.18751 -169.23010 32092 ft 431 kts 334°
2026-05-08 21:26 61.24024 -169.28899 32093 ft 430 kts 333°
2026-05-08 21:26 61.29297 -169.34810 32092 ft 430 kts 333°
2026-05-08 21:27 61.34565 -169.40739 32100 ft 430 kts 333°
2026-05-08 21:27 61.39829 -169.46686 32101 ft 430 kts 333°
2026-05-08 21:28 61.45093 -169.52656 32099 ft 430 kts 333°
2026-05-08 21:28 61.50354 -169.58646 32104 ft 430 kts 333°
2026-05-08 21:29 61.55573 -169.64612 32106 ft 430 kts 333°
2026-05-08 21:29 61.60862 -169.70680 32106 ft 430 kts 333°
2026-05-08 21:30 61.66077 -169.76688 32110 ft 430 kts 333°
2026-05-08 21:30 61.71321 -169.82751 32110 ft 430 kts 333°
2026-05-08 21:31 61.76567 -169.88841 32114 ft 430 kts 333°
2026-05-08 21:31 61.81806 -169.94947 32119 ft 430 kts 333°
2026-05-08 21:32 61.87042 -170.01074 32116 ft 430 kts 333°
2026-05-08 21:32 61.92279 -170.07227 32120 ft 430 kts 333°
2026-05-08 21:33 61.97512 -170.13397 32120 ft 430 kts 333°
2026-05-08 21:33 62.02744 -170.19592 32128 ft 430 kts 333°
2026-05-08 21:34 62.07968 -170.25802 32126 ft 430 kts 333°
2026-05-08 21:34 62.13192 -170.32037 32132 ft 430 kts 333°
2026-05-08 21:35 62.18412 -170.38292 32126 ft 430 kts 333°
2026-05-08 21:35 62.23626 -170.44565 32130 ft 430 kts 333°
2026-05-08 21:36 62.28804 -170.50819 32131 ft 430 kts 333°
2026-05-08 21:36 62.34010 -170.57133 32130 ft 429 kts 333°
2026-05-08 21:37 62.39209 -170.63462 32133 ft 429 kts 333°
2026-05-08 21:37 62.44406 -170.69817 32133 ft 429 kts 333°
2026-05-08 21:38 62.49599 -170.76190 32133 ft 429 kts 333°
2026-05-08 21:38 62.54788 -170.82584 32132 ft 429 kts 333°
2026-05-08 21:39 62.59973 -170.89001 32134 ft 429 kts 333°
2026-05-08 21:39 62.65159 -170.95443 32139 ft 429 kts 333°
2026-05-08 21:40 62.70335 -171.01901 32138 ft 429 kts 333°
2026-05-08 21:40 62.75512 -171.08385 32140 ft 429 kts 333°
2026-05-08 21:41 62.83236 -171.18110 32142 ft 429 kts 333°
2026-05-08 21:41 62.88401 -171.24646 32140 ft 429 kts 333°
2026-05-08 21:42 62.93565 -171.31207 32144 ft 429 kts 333°
2026-05-08 21:42 62.98722 -171.37787 32144 ft 429 kts 333°
2026-05-08 21:43 63.03878 -171.44393 32142 ft 429 kts 332°
2026-05-08 21:43 63.09029 -171.51020 32142 ft 429 kts 332°
2026-05-08 21:44 63.14176 -171.57668 32151 ft 429 kts 332°
2026-05-08 21:44 63.19323 -171.64345 32155 ft 429 kts 332°
2026-05-08 21:45 63.24463 -171.71041 32157 ft 429 kts 332°
2026-05-08 21:45 63.29599 -171.77760 32157 ft 428 kts 332°
2026-05-08 21:46 63.34737 -171.84508 32155 ft 428 kts 332°
2026-05-08 21:46 63.39868 -171.91276 32154 ft 429 kts 332°
2026-05-08 21:47 63.44994 -171.98067 32148 ft 429 kts 332°
2026-05-08 21:47 63.50119 -172.04884 32150 ft 429 kts 332°
2026-05-08 21:48 63.55244 -172.11731 32156 ft 429 kts 332°
2026-05-08 21:48 63.60364 -172.18599 32153 ft 429 kts 332°
2026-05-08 21:49 63.65446 -172.25446 32154 ft 429 kts 332°
2026-05-08 21:49 63.70563 -172.32369 32152 ft 429 kts 332°
2026-05-08 21:50 63.75675 -172.39316 32151 ft 429 kts 332°
2026-05-08 21:50 63.80788 -172.46291 32150 ft 429 kts 331°
2026-05-08 21:51 63.85857 -172.53441 32136 ft 432 kts 324°
2026-05-08 21:51 63.87984 -172.58285 32158 ft 437 kts 311°
2026-05-08 21:51 63.89621 -172.64128 32146 ft 443 kts 298°
2026-05-08 21:52 63.91497 -172.77535 32152 ft 447 kts 288°
2026-05-08 21:52 63.93074 -172.91235 32148 ft 448 kts 288°
2026-05-08 21:53 63.94664 -173.04935 32146 ft 448 kts 288°
2026-05-08 21:53 63.96284 -173.18636 32152 ft 448 kts 288°
2026-05-08 21:54 63.97911 -173.32344 32156 ft 449 kts 288°
2026-05-08 21:54 63.99530 -173.46074 32155 ft 449 kts 288°
2026-05-08 21:55 64.01136 -173.59836 32154 ft 449 kts 288°
2026-05-08 21:56 64.03520 -173.80520 32153 ft 450 kts 287°
2026-05-08 21:56 64.05085 -173.94255 32155 ft 450 kts 287°
2026-05-08 21:57 64.06648 -174.08103 32156 ft 450 kts 287°
2026-05-08 21:57 64.08198 -174.21971 32156 ft 451 kts 287°
2026-05-08 21:58 64.09737 -174.35872 32158 ft 451 kts 287°
2026-05-08 21:58 64.11262 -174.49787 32159 ft 451 kts 287°
2026-05-08 21:59 64.12775 -174.63732 32158 ft 452 kts 287°
2026-05-08 21:59 64.14276 -174.77700 32160 ft 452 kts 286°
2026-05-08 22:00 64.15766 -174.91695 32160 ft 452 kts 286°
2026-05-08 22:00 64.17243 -175.05720 32163 ft 453 kts 286°
2026-05-08 22:01 64.18707 -175.19771 32163 ft 453 kts 286°
2026-05-08 22:01 64.20150 -175.33755 32164 ft 453 kts 285°
2026-05-08 22:02 64.21590 -175.47854 32160 ft 454 kts 285°
2026-05-08 22:02 64.23019 -175.61993 32165 ft 454 kts 285°
2026-05-08 22:03 64.24435 -175.76155 32162 ft 455 kts 285°
2026-05-08 22:03 64.25838 -175.90336 32161 ft 455 kts 285°
2026-05-08 22:04 64.27228 -176.04544 32165 ft 456 kts 285°
2026-05-08 22:04 64.28383 -176.16476 32160 ft 455 kts 285°
2026-05-08 22:05 64.29738 -176.30609 32165 ft 455 kts 284°
2026-05-08 22:05 64.31088 -176.44842 32160 ft 455 kts 284°
2026-05-08 22:06 64.32426 -176.59106 32161 ft 455 kts 284°
2026-05-08 22:06 64.33750 -176.73398 32156 ft 456 kts 284°
2026-05-08 22:07 64.35061 -176.87704 32156 ft 456 kts 284°
2026-05-08 22:07 64.36360 -177.02046 32157 ft 456 kts 284°
2026-05-08 22:08 64.37646 -177.16412 32152 ft 457 kts 284°
2026-05-08 22:08 64.38919 -177.30800 32149 ft 457 kts 283°
2026-05-08 22:09 64.40178 -177.45203 32159 ft 457 kts 283°
2026-05-08 22:09 64.41423 -177.59624 32151 ft 457 kts 283°
2026-05-08 22:10 64.42654 -177.74064 32152 ft 457 kts 283°
2026-05-08 22:10 64.43871 -177.88510 32151 ft 457 kts 283°
2026-05-08 22:11 64.45073 -178.02974 32159 ft 457 kts 283°
2026-05-08 22:11 64.46261 -178.17433 32147 ft 457 kts 283°
2026-05-08 22:12 64.47434 -178.31915 32158 ft 457 kts 282°
2026-05-08 22:12 64.48595 -178.46416 32152 ft 457 kts 282°
2026-05-08 22:13 64.49733 -178.60833 32158 ft 457 kts 282°
2026-05-08 22:13 64.50873 -178.75468 32074 ft 459 kts 282°
2026-05-08 22:13 64.51427 -178.82655 31954 ft 459 kts 282°
2026-05-08 22:14 64.51994 -178.90049 31793 ft 459 kts 282°
2026-05-08 22:14 64.52542 -178.97258 31588 ft 459 kts 282°
2026-05-08 22:14 64.53094 -179.04568 31380 ft 460 kts 281°
2026-05-08 22:14 64.53644 -179.11890 31139 ft 461 kts 281°
2026-05-08 22:15 64.54191 -179.19237 30862 ft 462 kts 281°
2026-05-08 22:15 64.54737 -179.26617 30548 ft 464 kts 281°
2026-05-08 22:15 64.55280 -179.34008 30151 ft 467 kts 281°
2026-05-08 22:15 64.55823 -179.41457 29607 ft 462 kts 281°
2026-05-08 22:16 64.56353 -179.48796 28675 ft 458 kts 281°
2026-05-08 22:16 64.56878 -179.56101 27490 ft 458 kts 280°
2026-05-08 22:16 64.57394 -179.63333 26310 ft 459 kts 280°
2026-05-08 22:16 64.57917 -179.70718 25333 ft 455 kts 280°
2026-05-08 22:17 64.58423 -179.77925 24544 ft 447 kts 279°
2026-05-08 22:17 64.58919 -179.85023 23724 ft 441 kts 279°
2026-05-08 22:17 64.59404 -179.92031 22754 ft 436 kts 279°
2026-05-08 22:17 64.59881 -179.98965 21836 ft 431 kts 279°
2026-05-08 22:18 64.60348 179.94198 20995 ft 424 kts 279°
2026-05-08 22:18 64.60807 179.87450 20239 ft 419 kts 279°
2026-05-08 22:18 64.61257 179.80779 19503 ft 415 kts 279°
2026-05-08 22:18 64.61700 179.74161 18784 ft 412 kts 279°
2026-05-08 22:19 64.62134 179.67579 18019 ft 409 kts 279°
2026-05-08 22:19 64.62553 179.61056 17203 ft 405 kts 278°
2026-05-08 22:19 64.62953 179.54768 16454 ft 401 kts 278°
2026-05-08 22:19 64.63372 179.48191 15667 ft 396 kts 278°
2026-05-08 22:20 64.63768 179.41903 14920 ft 388 kts 278°
2026-05-08 22:20 64.64140 179.35803 14200 ft 382 kts 276°
2026-05-08 22:20 64.64019 179.29873 13590 ft 376 kts 258°
2026-05-08 22:20 64.63429 179.23706 13420 ft 378 kts 256°
2026-05-08 22:21 64.62853 179.17863 13251 ft 359 kts 256°
2026-05-08 22:21 64.62313 179.12351 13067 ft 339 kts 256°
2026-05-08 22:21 64.61820 179.07263 12882 ft 324 kts 256°
2026-05-08 22:21 64.61318 179.02030 12663 ft 321 kts 256°
2026-05-08 22:22 64.60832 178.96951 12339 ft 318 kts 256°
2026-05-08 22:22 64.60364 178.92058 12232 ft 302 kts 256°
2026-05-08 22:22 64.59918 178.87383 12002 ft 292 kts 256°
2026-05-08 22:22 64.59477 178.82791 11582 ft 290 kts 256°
2026-05-08 22:23 64.59037 178.78210 11142 ft 289 kts 256°
2026-05-08 22:23 64.58598 178.73655 10730 ft 287 kts 256°
2026-05-08 22:23 64.58161 178.69127 10330 ft 286 kts 256°
2026-05-08 22:23 64.57723 178.64633 9926 ft 284 kts 257°
2026-05-08 22:24 64.57287 178.60168 9503 ft 282 kts 256°
2026-05-08 22:24 64.56859 178.55733 9109 ft 279 kts 257°
2026-05-08 22:24 64.56444 178.51347 8701 ft 277 kts 257°
2026-05-08 22:24 64.56033 178.46984 8303 ft 275 kts 257°
2026-05-08 22:25 64.55624 178.42664 7906 ft 273 kts 257°
2026-05-08 22:25 64.55217 178.38375 7503 ft 271 kts 257°
2026-05-08 22:25 64.54811 178.34116 7123 ft 269 kts 257°
2026-05-08 22:25 64.54412 178.29946 6752 ft 267 kts 257°
2026-05-08 22:26 64.54009 178.25747 6361 ft 266 kts 257°
2026-05-08 22:26 64.53607 178.21571 5969 ft 263 kts 257°
2026-05-08 22:26 64.53207 178.17433 5587 ft 262 kts 257°
2026-05-08 22:26 64.52809 178.13331 5227 ft 259 kts 257°
2026-05-08 22:27 64.52415 178.09280 5050 ft 257 kts 257°
2026-05-08 22:27 64.52015 178.05171 5024 ft 263 kts 257°
2026-05-08 22:27 64.51616 178.01070 5003 ft 255 kts 257°
2026-05-08 22:27 64.51235 177.97188 4991 ft 238 kts 257°
2026-05-08 22:28 64.50875 177.93543 4995 ft 228 kts 257°
2026-05-08 22:28 64.50521 177.89965 5003 ft 226 kts 257°
2026-05-08 22:28 64.50186 177.86418 4998 ft 224 kts 263°
2026-05-08 22:28 64.50424 177.82933 4905 ft 217 kts 297°
2026-05-08 22:29 64.51280 177.80150 4685 ft 209 kts 311°
2026-05-08 22:29 64.52260 177.77645 4253 ft 210 kts 313°
2026-05-08 22:29 64.53242 177.75164 3886 ft 207 kts 312°
2026-05-08 22:29 64.54204 177.72703 3537 ft 204 kts 311°
2026-05-08 22:30 64.55121 177.70337 3429 ft 190 kts 311°
2026-05-08 22:30 64.55968 177.68139 3207 ft 182 kts 310°
2026-05-08 22:30 64.56847 177.66080 3012 ft 175 kts 327°
2026-05-08 22:30 64.57960 177.65768 2995 ft 162 kts 22°
2026-05-08 22:31 64.58909 177.67075 2955 ft 158 kts 18°
2026-05-08 22:31 64.59930 177.66891 2785 ft 142 kts 337°
2026-05-08 22:31 64.60878 177.66645 2508 ft 134 kts 18°
2026-05-08 22:31 64.61724 177.67414 2325 ft 134 kts 10°
2026-05-08 22:32 64.62611 177.67577 2142 ft 126 kts
2026-05-08 22:32 64.63447 177.68001 1977 ft 123 kts 14°
2026-05-08 22:32 64.64279 177.68490 1815 ft 122 kts 14°
2026-05-08 22:32 64.65107 177.68968 1665 ft 125 kts 15°
2026-05-08 22:33 64.65938 177.69479 1456 ft 122 kts 15°
2026-05-08 22:33 64.66752 177.69974 1278 ft 120 kts 17°
2026-05-08 22:33 64.67552 177.70484 1080 ft 118 kts 16°
2026-05-08 22:33 64.68347 177.70947 917 ft 119 kts 17°
2026-05-08 22:34 64.69142 177.71451 773 ft 119 kts 17°
2026-05-08 22:34 64.69946 177.71965 607 ft 120 kts 17°
2026-05-08 22:34 64.70750 177.72447 449 ft 118 kts 16°
2026-05-08 22:34 64.71542 177.72933 295 ft 117 kts 17°
2026-05-08 22:35 64.72326 177.73422 170 ft 113 kts 15°
2026-05-08 22:35 64.72988 177.73850 170 ft 79 kts 14°
2026-05-08 22:35 64.73361 177.74072 177 ft 28 kts 15°
2026-05-08 22:35 64.73491 177.74144 176 ft 6 kts 353°
2026-05-08 22:36 64.73521 177.74138 177 ft 1 kts 33°
2026-05-08 22:36 64.73522 177.74164 177 ft 2 kts 97°
2026-05-08 22:36 64.73510 177.74184 177 ft 3 kts 164°
2026-05-08 22:36 64.73478 177.74153 176 ft 8 kts 209°
2026-05-08 22:37 64.73422 177.74111 176 ft 10 kts 194°
2026-05-08 22:37 64.73348 177.74068 176 ft 12 kts 194°
2026-05-08 22:37 64.73254 177.74013 175 ft 16 kts 194°
2026-05-08 22:37 64.73142 177.73944 174 ft 18 kts 195°
2026-05-08 22:38 64.73020 177.73866 172 ft 18 kts 195°
2026-05-08 22:38 64.72896 177.73786 168 ft 19 kts 195°
2026-05-08 22:38 64.72773 177.73707 166 ft 18 kts 195°
2026-05-08 22:38 64.72654 177.73627 165 ft 18 kts 196°
2026-05-08 22:39 64.72535 177.73561 163 ft 17 kts 191°
2026-05-08 22:39 64.72415 177.73491 158 ft 18 kts 194°
2026-05-08 22:39 64.72292 177.73416 156 ft 18 kts 195°
2026-05-08 22:39 64.72186 177.73350 157 ft 13 kts 194°
2026-05-08 22:40 64.72098 177.73296 155 ft 13 kts 194°
2026-05-08 22:40 64.72033 177.73263 156 ft 8 kts 179°
2026-05-08 22:40 64.71985 177.73323 156 ft 9 kts 150°
2026-05-08 22:40 64.71912 177.73347 153 ft 12 kts 169°
2026-05-08 22:41 64.71838 177.73424 152 ft 12 kts 153°
2026-05-08 22:41 64.71767 177.73506 152 ft 11 kts 155°
2026-05-08 22:41 64.71703 177.73606 152 ft 11 kts 140°
2026-05-08 22:41 64.71650 177.73711 152 ft 8 kts 140°
2026-05-08 22:42 64.71607 177.73790 152 ft 7 kts 153°
2026-05-08 22:42 64.71560 177.73778 152 ft 7 kts 206°
2026-05-08 22:42 64.71519 177.73719 152 ft 7 kts 211°
2026-05-08 22:42 64.71474 177.73697 152 ft 6 kts 176°
2026-05-08 22:43 64.71437 177.73703 152 ft 3 kts 175°
2026-05-08 22:43 64.71416 177.73707 152 ft 3 kts 175°
2026-05-08 22:43 64.71403 177.73710 152 ft 0 kts 175°
2026-05-08 22:43 64.71397 177.73711 152 ft 0 kts 175°